Location: Oso Ridge
(35.0450°N, 108.0864°W)
Time: 05:31:55
(UTC-06:00)

Amateur Radio Satellites - All Passes

Search period start: 26 April 2015 05:01
Search period end: 27 April 2015 05:01
Location: Oso Ridge, 35.0450°N, 108.0864°W

Satellite Date Start Highest point End Downlink Frequencies (MHz)
Time Altitude Azimuth
Cosmos 2499 26 Apr 05:17:49 05:23:57 26° 70° (ENE) 05:29:59 435.465 / 435.565
AIST 2 26 Apr 05:23:16 05:25:24 13° 314° (NW) 05:27:22 435.215
JAS-2 26 Apr 05:26:05 05:32:20 85° 285° (WNW) 05:37:52 435.910
AUBIESAT-1 26 Apr 05:31:58 05:35:03 18° 63° (ENE) 05:38:19 437.475
MOZHAYETS 4 26 Apr 05:34:04 05:38:35 50° 261° (W) 05:43:07
CUSAT 1 26 Apr 05:36:26 05:43:55 47° 267° (W) 05:51:42 437.405
CUBESAT XI-V 26 Apr 05:38:06 05:39:35 12° 67° (ENE) 05:41:19 437.345
HORYU 2 26 Apr 05:43:54 05:47:39 25° 289° (WNW) 05:51:17 437.375
PRISM 26 Apr 05:58:44 05:59:26 10° 67° (ENE) 06:00:23 437.425
DANDE 26 Apr 06:19:31 06:26:10 30° 270° (W) 06:33:04 436.750
M-CUBED/EXP-1 PRIME 26 Apr 06:22:48 06:27:32 69° 71° (ENE) 06:32:22 437.505
SRMSAT 26 Apr 06:30:58 06:34:19 15° 188° (S) 06:37:38 437.500
GONETS M04 26 Apr 06:51:14 06:53:37 11° 281° (W) 06:55:07
AO-7 26 Apr 06:55:26 07:02:23 30° 298° (WNW) 07:09:07 29.400- 29.500
AUBIESAT-1 26 Apr 07:04:53 07:09:29 47° 257° (WSW) 07:14:07 437.475
Cosmos 2499 26 Apr 07:10:12 07:17:30 48° 270° (W) 07:24:18 435.465 / 435.565
CUBESAT XI-V 26 Apr 07:12:00 07:16:34 61° 259° (W) 07:21:10 437.345
PCSat 26 Apr 07:13:18 07:15:31 13° 105° (ESE) 07:18:04 145.827
JAS-2 26 Apr 07:15:02 07:16:22 10° 302° (WNW) 07:17:16 435.910
CUTE-I 26 Apr 07:17:17 07:22:30 57° 100° (E) 07:27:45 437.470
Cubesat XI-IV 26 Apr 07:27:02 07:32:21 72° 101° (ESE) 07:37:40 437.490
PRISM 26 Apr 07:30:23 07:34:29 55° 259° (W) 07:38:34 437.425
STRAND 1 26 Apr 07:31:27 07:36:34 85° 255° (WSW) 07:41:43 437.568
M-CUBED/EXP-1 PRIME 26 Apr 08:01:16 08:02:52 11° 267° (W) 08:04:09 437.505
O/OREOS (USA 219) 26 Apr 08:25:24 08:29:38 40° 65° (ENE) 08:33:51 437.305
GOMX 1 26 Apr 08:31:21 08:34:07 15° 90° (E) 08:37:14 467.674
Cosmos 2491 26 Apr 08:33:52 08:35:39 11° 59° (ENE) 08:38:16 435.465 / 435.565
BRITE-PL 26 Apr 08:45:26 08:50:05 32° 96° (E) 08:55:02 437.365/2234.400
PCSat 26 Apr 08:53:03 08:58:26 68° 299° (WNW) 09:03:51 145.827
CUTE-I 26 Apr 08:58:53 09:02:11 16° 294° (WNW) 09:05:14 437.470
DOVE 4 26 Apr 09:04:01 09:07:52 21° 93° (E) 09:11:56 437.250
SEEDS 26 Apr 09:06:42 09:09:09 15° 92° (E) 09:11:47 437.485
Cubesat XI-IV 26 Apr 09:09:29 09:11:55 13° 296° (WNW) 09:14:03 437.490
CANX-2 26 Apr 09:15:18 09:18:56 27° 96° (E) 09:22:35 2200.000
AAUSAT CUBESAT 2 26 Apr 09:22:12 09:24:42 16° 92° (E) 09:27:22 437.432
CUTE 1.7 + AOD 2 26 Apr 09:24:13 09:28:00 31° 96° (E) 09:31:48 437.475
YUBILEINY 26 Apr 09:36:03 09:39:20 13° 80° (E) 09:43:23 435.215
CUBEBUG 2 26 Apr 09:40:29 09:41:42 11° 89° (E) 09:43:17 437.445
CINEMA 3 26 Apr 09:43:20 09:47:29 26° 94° (E) 09:51:44 145.822/145.860
HO-68 26 Apr 09:52:00 09:59:10 68° 103° (ESE) 10:06:17 435.675
UWE-3 26 Apr 10:03:42 10:06:39 17° 91° (E) 10:09:45 435.000/436.395/437.385
O/OREOS (USA 219) 26 Apr 10:06:08 10:08:44 15° 259° (W) 10:11:07 437.305
GOMX 1 26 Apr 10:07:27 10:12:35 59° 285° (WNW) 10:17:55 467.674
FUNcube-1 26 Apr 10:11:39 10:14:18 16° 91° (E) 10:17:07 145.935
COMPASS 1 26 Apr 10:14:18 10:18:31 86° 98° (E) 10:22:41 437.405
ANTELSAT 26 Apr 10:18:43 10:22:23 25° 70° (ENE) 10:26:12 437.575/2403.000
QB50P1 26 Apr 10:20:16 10:21:03 11° 67° (ENE) 10:22:06 145.935-145.965
BRITE-PL 26 Apr 10:24:06 10:28:30 28° 288° (WNW) 10:33:01 437.365/2234.400
Cosmos 2491 26 Apr 10:25:44 10:34:33 70° 81° (E) 10:43:22 435.465 / 435.565
DELFI C3 26 Apr 10:27:30 10:31:04 30° 97° (E) 10:34:40 145.870
Oscar 11 26 Apr 10:33:44 10:37:59 52° 99° (E) 10:42:12 145.826/435.025
ZACube-1 26 Apr 10:36:13 10:40:16 30° 96° (E) 10:44:19 437.345
DOVE 4 26 Apr 10:40:54 10:45:44 40° 287° (WNW) 10:50:38 437.250
SEEDS 26 Apr 10:41:15 10:45:08 35° 287° (WNW) 10:48:56 437.485
QB50P2 26 Apr 10:44:04 10:47:14 22° 70° (ENE) 10:50:31 145.880/145.840
CANX-2 26 Apr 10:51:28 10:54:44 21° 289° (WNW) 10:57:51 2200.000
AAUSAT CUBESAT 2 26 Apr 10:56:41 11:00:28 33° 287° (WNW) 11:04:10 437.432
SO-50 26 Apr 10:56:44 11:00:21 24° 111° (ESE) 11:04:10 436.795
CUTE 1.7 + AOD 2 26 Apr 11:00:43 11:03:43 18° 290° (WNW) 11:06:34 437.475
NANOSAT C BR1 26 Apr 11:01:04 11:04:47 32° 73° (ENE) 11:08:36 145.865
BEESAT 3 26 Apr 11:01:14 11:02:54 12° 46° (NE) 11:04:44 437.485
AISAT 26 Apr 11:02:04 11:04:31 15° 92° (E) 11:07:10 437.250
BEESAT 2 26 Apr 11:04:03 11:05:10 11° 45° (NE) 11:06:30 435.950
POPSAT HIP 1 26 Apr 11:04:29 11:08:19 36° 73° (ENE) 11:12:13 437.405
TIGRISAT 26 Apr 11:07:38 11:12:08 88° 75° (ENE) 11:16:45 435.000
DX 1 26 Apr 11:08:39 11:12:44 39° 99° (E) 11:16:51 434.975-435.025
50 SAT 26 Apr 11:11:21 11:14:11 19° 93° (E) 11:17:07 437.505
UNISAT 6 26 Apr 11:12:17 11:16:47 80° 259° (W) 11:21:25 437.425
CUBEBUG 2 26 Apr 11:14:09 11:18:53 62° 284° (WNW) 11:23:34 437.445
AIST 1 26 Apr 11:18:56 11:20:47 13° 71° (ENE) 11:22:50
CINEMA 3 26 Apr 11:20:16 11:24:39 30° 288° (WNW) 11:28:57 145.822/145.860
BUGSAT 1 26 Apr 11:25:13 11:28:59 42° 74° (ENE) 11:32:49 437.445
YUBILEINY 26 Apr 11:26:14 11:35:04 84° 94° (E) 11:43:56 435.215
POLYITAN 1 26 Apr 11:34:10 11:38:23 88° 81° (E) 11:42:38 437.675
DUCHIFAT 1 26 Apr 11:34:15 11:38:26 84° 79° (E) 11:42:40 145.980
UWE-3 26 Apr 11:38:58 11:43:23 40° 287° (WNW) 11:47:43 435.000/436.395/437.385
HO-68 26 Apr 11:41:09 11:46:20 21° 298° (WNW) 11:51:13 435.675
ESTCUBE 1 26 Apr 11:42:45 11:46:14 23° 94° (E) 11:49:50 437.505/2401.250
FUNcube-1 26 Apr 11:46:30 11:50:51 42° 286° (WNW) 11:55:08 145.935
UKube-1 26 Apr 11:50:30 11:54:49 68° 285° (WNW) 11:59:07 .
QB50P1 26 Apr 11:52:22 11:56:29 56° 260° (W) 12:00:38 145.935-145.965
ANTELSAT 26 Apr 11:55:16 11:59:06 26° 265° (W) 12:02:54 437.575/2403.000
ISS 26 Apr 12:00:41 12:03:54 66° 318° (NW) 12:07:09 145.825
HUMSAT D 26 Apr 12:00:59 12:05:16 58° 284° (WNW) 12:09:28 437.325/437.525
DELFI C3 26 Apr 12:03:22 12:06:00 17° 290° (WNW) 12:08:29 145.870
AIST 2 26 Apr 12:08:01 12:10:44 17° 48° (NE) 12:13:32 435.215
Oscar 11 26 Apr 12:12:01 12:13:45 12° 293° (WNW) 12:15:13 145.826/435.025
ZACube-1 26 Apr 12:12:53 12:16:28 22° 290° (WNW) 12:19:55 437.345
VELOX 1 26 Apr 12:18:43 12:23:08 70° 284° (WNW) 12:27:33 145.980
QB50P2 26 Apr 12:19:27 12:23:01 26° 264° (W) 12:26:33 145.880/145.840
CUBEBUG 1 26 Apr 12:21:47 12:26:05 57° 100° (E) 12:30:24 437.445
Cosmos 2491 26 Apr 12:24:23 12:30:42 21° 277° (W) 12:36:34 435.465 / 435.565
SO-50 26 Apr 12:36:31 12:40:44 33° 307° (NW) 12:45:03 436.795
AISAT 26 Apr 12:37:07 12:41:20 41° 287° (WNW) 12:45:31 437.250
BEESAT 3 26 Apr 12:37:20 12:41:21 58° 244° (WSW) 12:45:17 437.485
NANOSAT C BR1 26 Apr 12:37:59 12:40:46 17° 267° (W) 12:43:24 145.865
BEESAT 2 26 Apr 12:39:43 12:43:49 69° 243° (WSW) 12:47:49 435.950
POPSAT HIP 1 26 Apr 12:41:51 12:44:23 15° 268° (W) 12:46:45 437.405
50 SAT 26 Apr 12:45:35 12:49:00 26° 288° (WNW) 12:52:20 437.505
DX 1 26 Apr 12:45:59 12:48:42 16° 292° (WNW) 12:51:15 434.975-435.025
AIST 1 26 Apr 12:54:41 12:58:43 41° 267° (W) 13:02:43
BUGSAT 1 26 Apr 13:03:16 13:04:45 11° 269° (W) 13:05:59 437.445
TISAT 1 26 Apr 13:05:39 13:09:31 34° 97° (E) 13:13:25 437.305
ESTCUBE 1 26 Apr 13:19:18 13:23:07 27° 289° (WNW) 13:26:51 437.505/2401.250
Oscar 19 26 Apr 13:23:05 13:27:47 39° 72° (ENE) 13:32:36 437.125/150
YUBILEINY 26 Apr 13:27:23 13:33:10 18° 296° (WNW) 13:38:25 435.215
Cosmos 2504 26 Apr 13:29:25 13:37:50 52° 91° (E) 13:46:18 435.465 / 435.565
ITUPSAT 1 26 Apr 13:37:43 13:38:17 10° 89° (E) 13:39:12 437.325
SPROUT 26 Apr 13:39:07 13:43:26 69° 284° (WNW) 13:47:45 437.525
ISS 26 Apr 13:40:07 13:40:49 10° 337° (NNW) 13:41:27 145.825
AIST 2 26 Apr 13:45:33 13:49:33 42° 246° (WSW) 13:53:27 435.215
ITAMSAT 1 26 Apr 14:00:16 14:04:29 27° 69° (ENE) 14:08:49 435.822/435.867
CUBEBUG 1 26 Apr 14:00:37 14:02:01 11° 293° (WNW) 14:03:11 437.445
RS-15 26 Apr 14:01:58 14:12:08 50° 111° (ESE) 14:22:36 29.354- 29.394
BEESAT 26 Apr 14:05:14 14:08:58 23° 94° (E) 14:12:49 436.000
SWISSCUBE 26 Apr 14:07:42 14:11:42 27° 96° (E) 14:15:46 437.505
AO-7 26 Apr 14:12:48 14:13:46 10° 51° (NE) 14:15:23 29.400- 29.500
Gurwin Techsat 1B 26 Apr 14:34:20 14:39:25 50° 73° (ENE) 14:44:34 435.225
TISAT 1 26 Apr 14:42:14 14:45:04 17° 291° (WNW) 14:47:46 437.305
VERMONT LUNAR 26 Apr 14:54:15 14:55:05 11° 142° (SE) 14:56:03 437.305
Oscar 19 26 Apr 15:03:24 15:07:19 21° 267° (W) 15:11:05 437.125/150
HORYU 2 26 Apr 15:03:31 15:06:13 16° 68° (ENE) 15:09:07 437.375
ITUPSAT 1 26 Apr 15:11:59 15:16:42 65° 286° (WNW) 15:21:24 437.325
KKS-1 26 Apr 15:22:17 15:26:04 27° 96° (E) 15:29:56 437.445
Cosmos 2504 26 Apr 15:23:51 15:31:36 32° 288° (WNW) 15:39:06 435.465 / 435.565
JAS-2 26 Apr 15:32:33 15:39:23 35° 69° (ENE) 15:46:12 435.910
ITAMSAT 1 26 Apr 15:39:17 15:43:54 31° 263° (W) 15:48:27 435.822/435.867
BEESAT 26 Apr 15:42:41 15:46:50 30° 289° (WNW) 15:50:55 436.000
SWISSCUBE 26 Apr 15:45:33 15:49:30 26° 290° (WNW) 15:53:21 437.505
GONETS M04 26 Apr 15:51:25 15:58:02 26° 85° (E) 16:05:01
AO-7 26 Apr 15:57:04 16:05:05 59° 68° (ENE) 16:13:11 29.400- 29.500
STARS 26 Apr 16:14:03 16:18:30 67° 101° (ESE) 16:22:55 437.465
RS-15 26 Apr 16:14:26 16:24:43 44° 312° (NW) 16:35:04 29.354- 29.394
Gurwin Techsat 1B 26 Apr 16:16:14 16:19:45 17° 269° (W) 16:23:00 435.225
VERMONT LUNAR 26 Apr 16:28:49 16:32:10 67° 153° (SSE) 16:35:31 437.305
HORYU 2 26 Apr 16:38:22 16:42:35 40° 262° (W) 16:46:49 437.375
KKS-1 26 Apr 16:59:00 17:02:37 23° 290° (WNW) 17:06:07 437.445
CUSAT 1 26 Apr 17:00:52 17:03:38 22° 87° (E) 17:07:07 437.405
PHONESAT 2.4 26 Apr 17:07:08 17:10:33 45° 151° (SSE) 17:14:00 2401.200-2431.200
JAS-2 26 Apr 17:16:44 17:24:13 46° 263° (W) 17:31:31 435.910
MOZHAYETS 4 26 Apr 17:32:29 17:36:55 48° 99° (E) 17:41:19
PCSat 26 Apr 17:44:16 17:49:29 47° 59° (ENE) 17:54:42 145.827
GONETS M04 26 Apr 17:45:45 17:54:21 59° 281° (W) 18:03:01
DANDE 26 Apr 17:46:36 17:49:44 60° 94° (E) 17:53:51 436.750
Cosmos 2499 26 Apr 17:49:27 17:56:16 27° 86° (E) 18:03:18 435.465 / 435.565
AO-7 26 Apr 17:51:31 17:58:22 27° 265° (W) 18:04:56 29.400- 29.500
VERMONT LUNAR 26 Apr 18:06:35 18:09:46 36° 350° (N) 18:12:57 437.305
ISS 26 Apr 18:30:46 18:33:41 30° 35° (NE) 18:36:37 145.825
RS-15 26 Apr 18:35:42 18:41:22 14° 343° (NNW) 18:46:46 29.354- 29.394
CUTE-I 26 Apr 18:35:54 18:41:10 68° 75° (ENE) 18:46:28 437.470
CUSAT 1 26 Apr 18:43:52 18:46:28 17° 295° (WNW) 18:49:24 437.405
PHONESAT 2.4 26 Apr 18:45:21 18:48:49 46° 346° (NNW) 18:52:17 2401.200-2431.200
Cubesat XI-IV 26 Apr 18:45:48 18:51:08 85° 77° (ENE) 18:56:30 437.490
AUBIESAT-1 26 Apr 18:51:10 18:53:32 16° 96° (E) 18:55:57 437.475
MOZHAYETS 4 26 Apr 19:11:15 19:13:46 14° 292° (WNW) 19:16:05
CUBESAT XI-V 26 Apr 19:12:02 19:16:23 41° 98° (E) 19:20:46 437.345
PRISM 26 Apr 19:16:33 19:19:52 24° 96° (E) 19:23:16 437.425
PCSat 26 Apr 19:28:42 19:32:35 20° 253° (WSW) 19:36:17 145.827
SO-50 26 Apr 19:32:05 19:34:06 13° 42° (NE) 19:36:20 436.795
Cosmos 2499 26 Apr 19:40:13 19:48:58 60° 281° (W) 19:57:31 435.465 / 435.565
M-CUBED/EXP-1 PRIME 26 Apr 19:43:13 19:47:21 88° 291° (WNW) 19:51:05 437.505
VERMONT LUNAR 26 Apr 19:44:34 19:47:41 33° 7° (N) 19:50:48 437.305
STRAND 1 26 Apr 19:45:29 19:50:18 42° 99° (E) 19:55:08 437.568
BRITE-PL 26 Apr 19:54:50 19:57:51 20° 70° (ENE) 20:01:03 437.365/2234.400
CANX-2 26 Apr 20:06:28 20:08:40 14° 69° (ENE) 20:11:05 2200.000
ISS 26 Apr 20:07:24 20:09:56 21° 230° (SW) 20:12:25 145.825
DOVE 4 26 Apr 20:08:52 20:10:23 12° 66° (ENE) 20:12:10 437.250
CUTE 1.7 + AOD 2 26 Apr 20:15:02 20:17:37 16° 69° (ENE) 20:20:21 437.475
HO-68 26 Apr 20:17:16 20:23:37 37° 67° (ENE) 20:30:07 435.675
CUTE-I 26 Apr 20:19:36 20:21:49 12° 271° (W) 20:23:41 437.470
PHONESAT 2.4 26 Apr 20:24:12 20:27:29 33° 3° (N) 20:30:47 2401.200-2431.200
AUBIESAT-1 26 Apr 20:24:56 20:28:30 30° 294° (WNW) 20:31:47 437.475
CINEMA 3 26 Apr 20:43:28 20:45:52 15° 67° (ENE) 20:48:31 145.822/145.860
CUBESAT XI-V 26 Apr 20:50:35 20:53:32 16° 291° (WNW) 20:56:18 437.345
PRISM 26 Apr 20:52:05 20:55:16 21° 289° (WNW) 20:58:19 437.425
RS-15 26 Apr 20:54:41 21:00:35 15° 20° (NNE) 21:07:00 29.354- 29.394
COMPASS 1 26 Apr 21:02:22 21:06:16 37° 74° (ENE) 21:10:12 437.405
SO-50 26 Apr 21:10:26 21:15:25 88° 234° (SW) 21:20:18 436.795
GOMX 1 26 Apr 21:13:00 21:17:10 74° 259° (W) 21:21:31 467.674
DELFI C3 26 Apr 21:13:29 21:15:24 14° 69° (ENE) 21:17:32 145.870
VERMONT LUNAR 26 Apr 21:22:00 21:25:24 87° 21° (NNE) 21:28:46 437.305
STRAND 1 26 Apr 21:25:33 21:29:14 20° 292° (WNW) 21:32:45 437.568
Oscar 11 26 Apr 21:25:39 21:29:18 27° 72° (ENE) 21:33:02 145.826/435.025
SEEDS 26 Apr 21:29:24 21:33:41 80° 260° (W) 21:37:58 437.485
ZACube-1 26 Apr 21:30:11 21:32:50 17° 68° (ENE) 21:35:42 437.345
Cosmos 2491 26 Apr 21:31:30 21:35:12 14° 81° (E) 21:39:37 435.465 / 435.565
BRITE-PL 26 Apr 21:32:50 21:36:18 25° 265° (W) 21:39:48 437.365/2234.400
CANX-2 26 Apr 21:40:11 21:44:17 42° 262° (W) 21:48:24 2200.000
YUBILEINY 26 Apr 21:41:10 21:48:54 35° 73° (ENE) 21:56:44 435.215
AAUSAT CUBESAT 2 26 Apr 21:43:34 21:47:47 79° 259° (WSW) 21:52:02 437.432
DOVE 4 26 Apr 21:43:37 21:47:43 50° 261° (W) 21:52:01 437.250
CUTE 1.7 + AOD 2 26 Apr 21:49:16 21:53:15 37° 263° (W) 21:57:15 437.475
DX 1 26 Apr 22:01:42 22:05:04 23° 70° (ENE) 22:08:33 434.975-435.025
PHONESAT 2.4 26 Apr 22:02:29 22:06:04 66° 19° (NNE) 22:09:37 2401.200-2431.200
HO-68 26 Apr 22:04:41 22:11:18 38° 262° (W) 22:17:52 435.675
CUBEBUG 2 26 Apr 22:08:58 22:13:17 74° 77° (ENE) 22:17:48 437.445
CINEMA 3 26 Apr 22:18:38 22:22:43 41° 263° (W) 22:26:59 145.822/145.860
UWE-3 26 Apr 22:32:26 22:36:46 73° 259° (W) 22:41:15 435.000/436.395/437.385
O/OREOS (USA 219) 26 Apr 22:33:53 22:38:28 89° 289° (WNW) 22:43:03 437.305
FUNcube-1 26 Apr 22:38:34 22:42:52 80° 258° (WSW) 22:47:20 145.935
COMPASS 1 26 Apr 22:39:37 22:42:08 15° 268° (W) 22:44:28 437.405
ESTCUBE 1 26 Apr 22:40:23 22:42:54 15° 68° (ENE) 22:45:37 437.505/2401.250
UKube-1 26 Apr 22:41:57 22:46:13 65° 75° (ENE) 22:50:31 .
DELFI C3 26 Apr 22:46:22 22:50:14 40° 262° (W) 22:54:05 145.870
HUMSAT D 26 Apr 22:49:15 22:53:25 63° 76° (ENE) 22:57:41 437.325/437.525
VERMONT LUNAR 26 Apr 23:00:22 23:02:34 16° 216° (SW) 23:04:41 437.305
Oscar 11 26 Apr 23:02:05 23:05:29 21° 266° (W) 23:08:47 145.826/435.025
TIGRISAT 26 Apr 23:03:22 23:07:07 24° 94° (E) 23:10:56 435.000
ZACube-1 26 Apr 23:04:53 23:08:55 37° 263° (W) 23:13:02 437.345
RS-15 26 Apr 23:06:15 23:17:09 46° 50° (NE) 23:28:40 29.354- 29.394
UNISAT 6 26 Apr 23:08:05 23:12:05 28° 95° (E) 23:16:07 437.425
VELOX 1 26 Apr 23:12:58 23:17:19 68° 76° (ENE) 23:21:42 145.980
CUBEBUG 1 26 Apr 23:15:06 23:18:53 31° 72° (ENE) 23:22:44 437.445
Cosmos 2491 26 Apr 23:22:17 23:31:00 88° 97° (E) 23:39:50 435.465 / 435.565
DUCHIFAT 1 26 Apr 23:23:23 23:26:10 17° 93° (E) 23:29:07 145.980
POLYITAN 1 26 Apr 23:23:52 23:26:51 19° 93° (E) 23:29:58 437.675
50 SAT 26 Apr 23:26:49 23:30:47 73° 259° (WSW) 23:34:50 437.505
Cosmos 2504 26 Apr 23:29:58 23:32:48 13° 61° (ENE) 23:36:10 435.465 / 435.565
AISAT 26 Apr 23:31:24 23:35:45 70° 259° (WSW) 23:40:09 437.250
DX 1 26 Apr 23:37:37 23:41:14 25° 264° (W) 23:44:48 434.975-435.025
YUBILEINY 26 Apr 23:37:44 23:45:53 44° 271° (W) 23:53:52 435.215
QB50P1 26 Apr 23:41:01 23:44:44 29° 96° (E) 23:48:31 145.935-145.965
PHONESAT 2.4 26 Apr 23:41:08 23:44:07 25° 214° (SSW) 23:47:04 2401.200-2431.200
ANTELSAT 26 Apr 23:49:40 23:54:24 85° 102° (ESE) 23:59:02 437.575/2403.000
TISAT 1 26 Apr 23:55:47 23:58:29 17° 69° (ENE) 00:01:20 437.305
QB50P2 27 Apr 00:07:11 00:11:28 63° 101° (E) 00:15:43 145.880/145.840
ESTCUBE 1 27 Apr 00:15:09 00:19:28 43° 261° (W) 00:23:46 437.505/2401.250
NANOSAT C BR1 27 Apr 00:24:20 00:28:38 82° 285° (WNW) 00:32:56 145.865
POPSAT HIP 1 27 Apr 00:28:11 00:32:29 74° 284° (WNW) 00:36:46 437.405
SPROUT 27 Apr 00:29:55 00:34:06 58° 75° (ENE) 00:38:18 437.525
TIGRISAT 27 Apr 00:39:49 00:43:52 28° 289° (WNW) 00:47:45 435.000
JUGNU 27 Apr 00:41:14 00:43:54 13° 168° (SSE) 00:46:39 437.505
UNISAT 6 27 Apr 00:44:57 00:48:46 24° 290° (WNW) 00:52:26 437.425
BUGSAT 1 27 Apr 00:45:32 00:49:40 66° 285° (WNW) 00:53:50 437.445
CUBEBUG 1 27 Apr 00:52:15 00:55:20 18° 267° (W) 00:58:17 437.445
DUCHIFAT 1 27 Apr 00:58:15 01:02:06 32° 287° (WNW) 01:05:54 145.980
POLYITAN 1 27 Apr 00:59:00 01:02:50 31° 288° (WNW) 01:06:37 437.675
BEESAT 27 Apr 01:09:10 01:12:29 20° 69° (ENE) 01:15:59 436.000
SWISSCUBE 27 Apr 01:11:35 01:15:14 23° 69° (ENE) 01:19:00 437.505
QB50P1 27 Apr 01:17:15 01:20:27 20° 290° (WNW) 01:23:31 145.935-145.965
RS-15 27 Apr 01:18:42 01:29:50 51° 249° (WSW) 01:41:13 29.354- 29.394
Cosmos 2504 27 Apr 01:19:51 01:27:49 85° 83° (E) 01:35:12 435.465 / 435.565
AIST 1 27 Apr 01:20:22 01:24:37 60° 278° (W) 01:28:52
Cosmos 2491 27 Apr 01:23:57 01:29:17 16° 297° (WNW) 01:34:03 435.465 / 435.565
TISAT 1 27 Apr 01:30:18 01:34:03 32° 263° (W) 01:37:48 437.305
Oscar 19 27 Apr 01:38:51 01:42:13 18° 92° (E) 01:45:47 437.125/150
ITUPSAT 1 27 Apr 02:15:19 02:20:08 82° 256° (WSW) 02:24:57 437.325
ITAMSAT 1 27 Apr 02:18:15 02:19:47 11° 89° (E) 02:21:40 435.822/435.867
KKS-1 27 Apr 02:18:17 02:21:07 17° 69° (ENE) 02:24:06 437.445
BEESAT 3 27 Apr 02:27:03 02:31:00 55° 116° (ESE) 02:35:02 437.485
JUGNU 27 Apr 02:28:19 02:32:13 18° 178° (S) 02:36:07 437.505
BEESAT 2 27 Apr 02:30:23 02:34:19 48° 116° (ESE) 02:38:20 435.950
SRMSAT 27 Apr 02:41:29 02:44:32 14° 170° (S) 02:47:37 437.500
BEESAT 27 Apr 02:45:40 02:50:07 37° 262° (W) 02:54:32 436.000
SWISSCUBE 27 Apr 02:48:39 02:52:57 32° 263° (W) 02:57:11 437.505
Gurwin Techsat 1B 27 Apr 02:54:20 02:58:40 26° 95° (E) 03:03:06 435.225
STARS 27 Apr 03:07:55 03:11:58 38° 73° (ENE) 03:16:04 437.465
Cosmos 2504 27 Apr 03:16:25 03:20:09 14° 280° (W) 03:23:14 435.465 / 435.565
Oscar 19 27 Apr 03:16:53 03:21:51 46° 288° (WNW) 03:26:46 437.125/150
CUSAT 1 27 Apr 03:38:28 03:45:14 32° 72° (ENE) 03:52:33 437.405
AIST 2 27 Apr 03:39:52 03:44:07 89° 123° (ESE) 03:48:26 435.215
KKS-1 27 Apr 03:53:24 03:57:30 36° 262° (W) 04:01:36 437.445
ITAMSAT 1 27 Apr 03:54:42 03:59:51 68° 285° (WNW) 04:04:59 435.822/435.867
GONETS M04 27 Apr 03:59:54 04:08:39 62° 79° (E) 04:17:21
AO-7 27 Apr 04:03:31 04:09:27 22° 93° (E) 04:15:46 29.400- 29.500
BEESAT 3 27 Apr 04:07:19 04:09:25 13° 313° (NW) 04:11:21 437.485
BEESAT 2 27 Apr 04:10:19 04:12:45 15° 312° (NW) 04:15:04 435.950
JUGNU 27 Apr 04:17:06 04:20:33 16° 188° (S) 04:23:56 437.505
DANDE 27 Apr 04:27:10 04:34:48 56° 78° (ENE) 04:43:14 436.750
SRMSAT 27 Apr 04:29:06 04:32:59 18° 180° (S) 04:36:52 437.500
MOZHAYETS 4 27 Apr 04:31:22 04:35:25 31° 72° (ENE) 04:39:33
JAS-2 27 Apr 04:31:45 04:37:00 31° 93° (E) 04:41:53 435.910
HORYU 2 27 Apr 04:32:40 04:37:02 48° 100° (E) 04:41:21 437.375
Gurwin Techsat 1B 27 Apr 04:33:57 04:38:42 33° 289° (WNW) 04:43:22 435.225
STARS 27 Apr 04:45:54 04:48:37 15° 268° (W) 04:51:09 437.465
